{"data":{"norad_id":58851,"intl_designator":"2024-018C","name":"2024-018C","alt_names":[],"object_type":"PAYLOAD","status":"ACTIVE","operator":null,"country":"IRAN","launch_date":"2024-01-28","launch_site_code":"SEMLS","launch_vehicle":null,"mission":null,"orbit_class":"UNKNOWN","rcs_meters":null,"size_class":null,"mass_kg":null,"dimensions":null,"purposes":[],"wikipedia_slug":null,"has_3d_model":false,"image_url":null,"decayed_at":null,"tle_current":{"epoch":"2026-05-25T04:09:51.976800Z","epoch_age_seconds":53429,"freshness":"FRESH","line1":"1 58851U 24018C   26145.17351825  .00002469  00000+0  27319-3 0  9997","line2":"2 58851  58.6835 304.1999 0430557  81.1954 283.7564 14.40933971121977","mean_motion":14.40933971,"eccentricity":0.0430557,"inclination_deg":58.6835,"raan_deg":304.1999,"arg_perigee_deg":81.1954,"mean_anomaly_deg":283.7564,"bstar":0.00027319,"rev_number":12197,"period_min":99.935182942536,"perigee_km":448.27424035622,"apogee_km":1062.554328427,"semimajor_km":7133.5512843916,"source":"CELESTRAK","updated_at":"2026-05-25T13:38:01.011466Z"}}}